Regional Weather Roundup
Issued by NWS

Home | Current Version | Previous Version | Graphics & Text | Print | Product List | Glossary On
Versions: 1 2 3 4 5 6 7 8 9 10 11 12 13 14 15 16 17 18 19 20 21 22 23 24 25 26 27 28 29 30 31 32 33 34 35 36 37 38 39 40 41 42 43 44 45 46 47 48 49 50
000
ASUS43 KMPX 181101
RWRMN
WEATHER ROUNDUP FOR MINNESOTA
NATIONAL WEATHER SERVICE TWIN CITIES/CHANHASSEN MN
600 AM CDT THU SEP 18 2014


NOTE: "FAIR" INDICATES FEW OR NO CLOUDS BELOW 12,000 FEET WITH NO
SIGNIFICANT WEATHER AND/OR OBSTRUCTIONS TO VISIBILITY. N/A MEANS
CURRENT SKY AND/OR WEATHER CONDITIONS ARE NOT AVAILABLE.

MNZ060>063-068>070-181200-
   Twin Cities Metro

CITY           SKY/WX    TMP DP  RH WIND       PRES   REMARKS
TWIN CITIES    CLEAR     49  46  90 NE7       30.07R
ST PAUL        CLEAR     48  45  89 CALM      30.08S
CRYSTAL        CLEAR     47  44  90 NE3       30.06S
BLAINE         CLEAR     46  46 100 CALM      30.08R
LAKEVILLE        N/A     46  46 100 CALM      30.06R FOG
EDEN PRAIRIE     N/A    N/A N/A N/A MISG      30.05R
SOUTH ST PAUL  CLEAR     49  46  90 CALM      30.07R
LAKE ELMO      FAIR      45  45 100 NE3       30.08R
$$
MNZ001>005-007-008-013>017-022>024-027-028-181200-
   Northwest Minnesota

CITY           SKY/WX    TMP DP  RH WIND       PRES   REMARKS
BEMIDJI        CLOUDY    45  42  89 SE9       30.07S
HALLOCK        CLEAR     39  37  93 E5        30.01F
ROSEAU         HAZE      43  37  81 SE7       30.04F VSB 1/2
WARROAD        FOG       43  37  81 S7        30.06S VSB 3/4
THIEF RVR FALL CLOUDY    46  45  93 SE8       30.02F VSB 1/2
CROOKSTON      CLEAR     43  43 100 SE5       30.02F
FOSSTON        CLOUDY    46  45  93 E6        30.04S FOG
DETROIT LAKES  FOG       46  46 100 SE13      30.05S VSB 1
MOORHEAD       CLEAR     48  48 100 SE3       30.01S
PARK RAPIDS    CLOUDY    45  44  97 SE7       30.07S FOG
MAHNOMEN       CLOUDY    47  46  97 SE9       30.03R
$$
MNZ006-009>011-018-025>026-181200-
   North Central Minnesota

CITY           SKY/WX    TMP DP  RH WIND       PRES   REMARKS
BAUDETTE       CLOUDY    41  40  96 VRB6      30.08S FOG
FLAG ISLAND    CLOUDY    46  43  87 SE17      30.05S
INTL FALLS     CLOUDY    42  40  92 SE7       30.11S
WASKISH        CLOUDY    45  43  93 CALM      30.08S
BIG FORK       CLOUDY    43  41  93 SE6       30.11S
LONGVILLE      CLOUDY    41  39  93 SE6       30.10S
GRAND RAPIDS   CLOUDY    43  37  81 SE6       30.11S
CRANE LAKE     CLOUDY    39  39 100 CALM      30.15S
ORR            CLOUDY    41  37  87 SE3       30.10S
COOK           CLOUDY    43  39  87 SE6       30.13S
WALKER         CLOUDY    43  41  94 SE9       30.09S
$$
MNZ012-019>021-037-181200-
   Northeast Minnesota

CITY           SKY/WX    TMP DP  RH WIND       PRES   REMARKS
DULUTH         CLOUDY    43  36  76 E12       30.13S
ELY            CLOUDY    39  34  81 SE9       30.14F
HIBBING        CLOUDY    43  38  82 SE9       30.13S
EVELETH        CLOUDY    43  37  81 SE3       30.14S
DULUTH HARBOR  CLOUDY    46  41  81 E17       30.16S
TWO HARBORS    CLOUDY    43  34  70 E8        30.14S
SILVER BAY     PTCLDY    41  39  93 E3        30.14F
GRAND MARAIS     N/A     45  35  68 VRB5      30.19S
G MARAIS ARPRT CLOUDY    36  30  80 CALM      30.17S
$$
MNZ029>031-032-039>041-046>048-054>057-064-181200-
   West Central Minnesota

CITY           SKY/WX    TMP DP  RH WIND       PRES   REMARKS
FERGUS FALLS   CLOUDY    52  48  87 E9        30.03S FOG
WHEATON        CLEAR     45  43  93 E9        30.02F FOG
MORRIS         FOG       50  48  93 E13       30.01S VSB 1/2
ALEXANDRIA     FOG       48  47  96 E10       30.06S VSB 1/2
ELBOW LAKE     FOG       49  49  99 E10       30.02S VSB 3/4
WADENA         FOG       46  45  93 E7        30.06S VSB 1/2
GLENWOOD       MIX PCPN  48  46  93 E8        30.05F VSB 1/4
APPLETON       FOG       54  50  87 E12       30.01S VSB 1
BENSON         FOG       50  50 100 SE8       30.03S VSB 3/4
ORTONVILLE     CLEAR     52  48  87 E8        30.00S FOG
MADISON        CLEAR     48  48 100 E7        30.01S FOG
WILLMAR        CLOUDY    52  48  87 E9        30.05S FOG
$$
MNZ033>034-036-042>043-049>051-058-059-181200-
   Central Minnesota

CITY           SKY/WX    TMP DP  RH WIND       PRES   REMARKS
ST CLOUD       CLOUDY    48  44  86 NE6       30.08S
SAUK CENTRE    CLOUDY    46  46 100 E7        30.07S FOG
PAYNESVILLE    CLOUDY    45  46 100 NE9       30.06S
AITKIN         CLEAR     39  36  87 CALM      30.10S
PINE RIVER     CLOUDY    43  39  87 E9G17     30.12S
BRAINERD       CLEAR     41  38  89 NE7       30.10S
STAPLES        CLOUDY    46  45  93 SE5       30.08S
LONG PRAIRIE   CLOUDY    45  45 100 E8        30.07S FOG
LITTLE FALLS   CLOUDY    45  43  93 E3        30.09R
LITCHFIELD     CLOUDY    48  48 100 E7        30.07R
BUFFALO        CLOUDY    46  44  90 NE6       30.08S
MAPLE LAKE     CLOUDY    47  46  95 NE7       30.08S
$$
MNZ037-044-045-052-053-181200-
   East Central Minnesota

CITY           SKY/WX    TMP DP  RH WIND       PRES   REMARKS
PRINCETON      CLOUDY    46  45  93 NE5       30.09S
MORA           CLOUDY    39  36  87 E6        30.12S
CAMBRIDGE      CLOUDY    48  39  71 NE5       30.07S
RUSH CITY      CLOUDY    44  42  91 NE5       30.10S
MOOSE LAKE     CLEAR     39  36  87 NE5       30.11S
HINCKLEY       CLOUDY    41  39  93 NE3       30.11S
CLOQUET        MOCLDY    41  37  87 E5        30.13S
MCGREGOR       CLEAR     37  36  93 E5        30.12S
$$
MNZ071>073-080-081-089-090-097-098-181200-
   Southwest Minnesota

CITY           SKY/WX    TMP DP  RH WIND       PRES   REMARKS
MONTEVIDEO     MOCLDY    52  52 100 SE10      30.03S FOG
GRANITE FALLS  CLEAR     51  51  98 E5        30.03S
CANBY          PTCLDY    46  46  97 NE7       30.01S
MARSHALL       PTCLDY    48  45  87 NE7       30.00R
REDWOOD FALLS  MOCLDY    52  51  97 E9        30.03R FOG
OLIVIA         FOG       52  50  93 E8        30.03R VSB 1/2
PIPESTONE      MOCLDY    54  52  94 SE5       30.00S
WINDOM           N/A     48  46  93 CALM      30.02S FOG
WORTHINGTON    MOCLDY    52  48  87 SE6       30.02S
JACKSON        CLEAR     50  46  87 CALM      30.03S
TRACY          PTCLDY    58  54  85 S7        30.00F
SLAYTON          N/A     48  48 100 CALM      30.02S FOG
$$
MNZ065>067-074>077-082>085-091>093-181200-
   South Central Minnesota

CITY           SKY/WX    TMP DP  RH WIND       PRES   REMARKS
MANKATO        CLEAR     52  46  82 E7        30.03S
NEW ULM        CLEAR     52  52 100 E3        30.03R
ST JAMES       PTCLDY    52  48  87 CALM      30.03R
FAIRMONT       CLEAR     48  45  87 CALM      30.03R
GLENCOE        CLOUDY    52  49  90 CALM      30.05R FOG
FARIBAULT      HAZE      54  48  82 CALM      30.05S VSB 1/4
OWATONNA       CLEAR     48  46  93 E5        30.05S
WASECA         CLEAR     48  45  87 NE3       30.05S
ALBERT LEA     CLEAR     46  46 100 CALM      30.05R
$$
MNZ078>079-086>088-094>096-181200-
   Southeast Minnesota

CITY           SKY/WX    TMP DP  RH WIND       PRES   REMARKS
ROCHESTER      CLEAR     49  46  90 NE3       30.07R
RED WING       CLEAR     50  48  93 E5        30.06R
STANTON        FOG       47  45  94 CALM      30.05R VSB 1/4
DODGE CENTER   PTCLDY    46  46 100 CALM      30.06R
WINONA         FOG       54  54 100 E5        30.07S VSB 1/4
AUSTIN         CLEAR     45  45 100 SE5       30.05R
PRESTON        CLEAR     49  49 100 CALM      30.07R
$$
ABBREVIATIONS USED IN REMARKS
   TC - TEMPERATURES IN CELSIUS
  WCI - WIND CHILL INDEX
   HX - HEAT INDEX
  VSB - VISIBILITY
$$


USA.gov is the U.S. government's official web portal to all federal, state and local government web resources and services.